Regional Weather Roundup
Issued by NWS Bismarck, ND

Home | Current Version | Previous Version | Text Only | Print | Product List | Glossary On
Versions: 1 2 3 4 5 6 7 8 9 10 11 12 13 14 15 16 17 18 19 20 21 22 23 24 25 26 27 28 29 30 31 32 33 34 35 36 37 38 39 40 41 42 43 44 45 46 47 48 49 50
000
ASUS43 KBIS 242010
RWRBIS

NWR BROADCAST TEXT
NATIONAL WEATHER SERVICE BISMARCK ND
300 PM CDT SUN JUL 24 2016

NOTE: "FAIR" INDICATES FEW OR NO CLOUDS BELOW 12,000 FEET WITH NO
SIGNIFICANT WEATHER AND/OR OBSTRUCTIONS TO VISIBILITY.


CITY           SKY/WX    TMP DP  RH WIND       PRES   REMARKS
WILLISTON      SUNNY     83  51  33 NW6       30.02F
MINOT          SUNNY     83  54  36 W17G29    29.99S
MINOT AFB      SUNNY     78  54  42 NW20G29   29.98S
BISMARCK       SUNNY     83  55  38 NW13G21   30.03F
DICKINSON      SUNNY     81  50  33 NW8       30.07S
GARRISON         N/A     79  57  46 W16G25    30.03S
HETTINGER ARPT SUNNY     87  42  20 W7        30.09F
JAMESTOWN      MOSUNNY   79  56  45 NW22G28   29.98R
CARRINGTON     FAIR      77  59  53 NW17G29   30.00S
HAZEN          FAIR      79  55  44 NW15      30.05S
LINTON         FAIR      81  63  54 NW14      30.07S
MANDAN         FAIR      81  54  39 NW12G25   30.05S
OAKES            N/A    N/A N/A N/A MISG        N/A
STANLEY        FAIR      79  54  41 W12G20    30.05F
WATFORD CITY     N/A    N/A N/A N/A MISG        N/A
$$

CITY           SKY/WX    TMP DP  RH WIND       PRES   REMARKS
GRAND FORKS    MOSUNNY   80  63  55 NW15G23   29.88R
GRAND FORKS AF MOSUNNY   79  61  54 NW16      29.90R
DEVILS LAKE    MOSUNNY   77  57  50 W22G29    29.95S
FARGO          MOSUNNY   82  59  45 W18G28    29.91R
CAVALIER       FAIR      77  61  57 NW14G21   29.87R
GRAFTON        FAIR      79  63  57 NW14G22   29.89S
GWINNER        FAIR      82  55  39 W18G28    29.99R
LANGDON        FAIR      77  61  57 W14G25    29.92S
ROLLA            N/A     73  57  56 W18       29.96S
$$

CITY           SKY/WX    TMP DP  RH WIND       PRES   REMARKS
ABERDEEN       SUNNY     84  57  39 NW10      30.02S
MOBRIDGE       SUNNY     87  49  26 NW12      30.03F
BUFFALO          N/A     86  45  23 S7        30.04F
RAPID CITY     MOSUNNY   85  48  27 VRB3      30.12F
GLASGOW        SUNNY     87  48  25 W10       29.99F
SIDNEY         MOSUNNY   84  51  31 VRB3      30.03F
WOLF POINT     MOSUNNY   86  50  28 VRB5      30.00F
GLENDIVE       MOSUNNY   87  50  27 SW15      30.05
MILES CITY     SUNNY     89  43  20 E8        30.03F
BAKER          SUNNY     84  46  26 E5        30.09F
$$

CITY           SKY/WX    TMP DP  RH WIND       PRES   REMARKS
BILLINGS       MOSUNNY   85  39  19 CALM      30.08F
GREAT FALLS    SUNNY     82  33  17 W12G32    30.08F
REGINA         MOSUNNY   75  55  50 NW13      29.99F
ESTEVAN        MOSUNNY   77  57  50 NW12G24   30.01S
$$




USA.gov is the U.S. government's official web portal to all federal, state and local government web resources and services.